RH
46 66 63 59 55 52 54 53 55 57 64 60 50 51 56 61 62 64 66 71 74 81 89 88 79 74 72 69 67 78 80 80 80 86 88 89 92 92 85 83 87 90 85
42 78 62 59 55 51 55 54 57 58 66 63 55 55 59 63 62 64 68 68 80 78 81 74 75 76 75 70 71 79 80 80 84 86 88 91 95 92 85 88 84 92 85
53 75 61 56 54 50 54 55 59 62 65 67 62 59 63 63 61 63 66 74 75 73 71 74 78 76 72 70 73 79 81 82 86 85 83 77 88 98 88 86 85 87 87
58 69 76 56 53 49 50 54 60 63 64 66 66 63 63 62 59 63 68 72 72 69 73 75 73 72 71 74 77 80 83 86 84 79 81 77 82 92 85 84 87 87 88
59 64 74 55 52 50 49 51 55 59 62 64 65 64 62 59 59 65 69 73 72 71 75 77 73 70 74 75 77 78 82 83 80 82 76 75 82 90 84 83 83 83 88
60 61 82 56 51 51 50 49 50 52 54 58 62 64 62 59 62 67 71 74 72 73 76 76 72 71 75 75 76 76 80 81 76 63 76 86 80 87 87 88 88 88 84
62 64 89 64 52 53 52 50 49 51 54 56 62 64 63 64 67 70 72 74 72 76 77 72 69 70 72 72 74 76 78 78 71 69 83 85 85 88 84 85 84 84 87
69 75 87 76 58 56 55 52 52 52 55 57 63 66 67 70 71 72 74 75 75 78 80 74 71 70 71 73 76 78 78 79 68 77 86 84 91 89 86 83 81 80 84
80 82 92 98 84 63 59 56 55 55 56 59 65 67 70 73 73 74 75 76 78 83 83 70 75 72 71 74 78 79 79 78 62 67 84 84 90 92 92 84 82 80 80
88 87 91 99 98 89 86 63 62 59 58 58 63 68 69 70 73 75 78 81 80 84 80 71 76 72 72 76 78 79 81 82 67 61 74 72 86 90 95 83 84 76 82
95 95 95 100 99 91 83 87 70 67 65 62 63 68 71 86 88 87 90 88 86 86 85 76 74 74 76 79 78 82 85 71 63 61 64 76 86 87 85 87 81 81 86
71 92 98 99 99 98 79 84 88 88 85 85 84 88 83 79 82 80 86 95 87 85 86 78 74 79 82 84 91 89 80 60 62 63 71 81 83 86 89 88 85 86 90
48 74 89 96 99 100 81 93 80 79 77 81 83 81 79 81 88 84 85 94 96 93 95 90 90 86 79 68 69 77 68 70 62 62 68 79 80 83 86 87 90 91 88
35 59 75 85 90 96 95 99 99 87 96 95 87 83 76 88 82 82 77 78 83 85 81 84 82 78 78 75 70 72 72 68 63 70 80 82 87 84 91 96 96 91 80
23 38 61 76 81 83 94 91 98 88 76 92 97 99 87 96 94 86 71 73 74 80 81 82 80 85 86 86 77 76 75 70 68 72 70 80 85 86 86 99 97 99 96
16 18 29 59 78 78 81 86 85 87 72 91 99 100 99 87 85 98 78 75 72 80 80 82 82 84 85 81 82 81 75 72 74 73 67 85 78 80 81 88 97 98 99
13 15 19 32 55 76 79 81 82 76 77 80 99 99 99 99 87 97 96 77 70 76 86 87 85 85 84 84 82 82 80 77 76 73 74 71 79 74 78 80 98 95 96
12 14 17 24 34 63 74 76 75 72 76 72 88 84 93 98 98 96 97 96 83 80 91 88 89 89 84 86 83 88 85 81 79 78 74 74 74 78 75 77 82 96 94
12 15 18 23 27 44 67 74 79 76 76 68 72 75 78 93 98 92 93 97 98 97 97 90 86 88 85 86 84 87 88 86 80 79 76 76 80 79 82 75 76 88 96
33 37 35 27 28 29 48 66 64 72 75 72 68 68 71 84 87 89 74 92 99 100 100 97 90 87 83 88 82 79 80 81 81 77 80 79 85 80 80 81 80 88 91
50 54 54 57 55 35 30 49 53 65 71 69 70 68 70 80 86 83 81 90 95 100 100 100 100 97 94 91 92 93 89 92 88 78 76 80 88 89 85 77 84 89 96
59 60 62 62 60 62 42 28 46 52 66 66 64 71 77 81 82 85 83 92 100 100 100 100 100 100 100 99 95 89 91 85 86 88 85 88 97 100 96 83 82 87 99
62 64 66 67 66 64 66 57 31 50 55 62 72 80 84 81 83 89 89 97 100 100 100 100 99 100 98 100 87 72 77 70 56 69 82 84 92 99 94 86 92 91 94
63 69 72 73 74 71 67 63 55 34 47 57 69 83 84 86 87 91 96 99 100 100 100 100 100 98 98 97 99 85 64 56 66 68 79 87 92 98 99 94 100 97 98
62 68 76 78 79 79 78 72 68 49 45 48 61 68 79 91 97 96 99 98 98 99 100 99 99 98 97 94 97 93 82 74 72 76 68 66 87 90 95 100 98 100 99
64 71 78 82 81 86 90 85 78 70 50 46 49 64 72 90 100 100 100 99 99 100 100 100 100 99 98 98 97 79 80 79 77 81 78 67 65 70 96 99 100 100 100
Wind_Speed
9 20 29 26 26 25 22 21 21 23 25 26 28 28 27 26 26 26 25 24 22 20 18 18 18 16 14 12 12 11 9 11 13 13 15 16 16 17 18 19 17 17 21
12 19 29 27 26 26 22 20 21 22 27 27 27 27 26 26 27 26 24 24 21 20 20 16 17 15 13 12 15 10 11 13 14 15 16 16 15 16 19 17 16 19 21
15 21 30 29 28 27 24 21 22 24 26 26 26 27 25 25 26 25 24 23 21 20 18 15 16 15 14 14 15 12 13 15 16 16 16 13 13 15 19 18 19 21 21
15 23 24 29 29 27 26 24 24 25 25 26 26 26 24 25 25 24 23 22 20 19 18 16 15 14 15 15 14 14 15 17 17 17 11 13 14 16 17 19 21 21 22
14 21 24 31 30 28 26 25 24 24 25 25 26 25 25 25 25 24 22 21 19 19 19 16 15 15 16 15 15 16 17 18 18 13 11 12 14 15 18 18 20 20 20
15 20 22 31 30 28 27 25 25 24 24 25 25 25 25 26 25 23 22 20 18 19 19 17 16 15 16 15 15 17 18 18 16 10 10 13 12 16 18 20 21 22 21
13 16 16 29 30 29 27 26 24 24 23 24 26 26 27 26 25 23 21 20 19 19 19 17 17 16 16 15 16 17 18 17 10 9 11 14 12 16 17 19 20 22 22
11 13 15 26 28 28 27 26 24 23 22 22 25 26 26 25 24 23 21 20 19 19 18 17 17 17 16 16 16 17 17 17 9 10 11 12 13 17 17 19 20 19 20
8 12 13 18 23 27 26 25 25 24 23 22 24 25 25 24 23 23 21 21 20 19 17 17 18 18 17 16 17 17 17 16 9 10 10 11 14 16 20 20 18 17 16
7 13 14 14 18 19 21 24 24 23 23 24 23 24 23 23 22 22 22 21 20 18 16 15 18 18 18 17 17 16 16 15 9 9 11 12 16 18 20 20 19 14 14
6 12 13 13 15 18 18 20 23 22 22 23 23 23 22 18 19 20 20 20 20 18 16 15 18 18 18 17 16 16 15 11 10 10 10 13 18 18 20 20 18 16 15
8 13 14 13 15 17 17 17 19 19 20 20 20 21 20 19 19 19 20 21 20 18 16 16 17 18 17 14 14 16 13 10 11 11 10 14 19 18 20 22 20 18 18
6 13 17 16 14 16 17 17 20 20 21 22 22 22 22 21 19 21 18 19 19 19 15 16 17 17 17 15 15 15 14 12 12 11 12 14 20 19 20 23 22 20 20
7 10 14 19 19 19 18 16 17 19 21 23 25 25 24 24 22 22 20 20 20 20 18 19 18 18 18 16 15 16 15 14 12 11 12 16 20 19 20 21 22 21 21
7 7 10 16 19 22 23 21 20 23 22 23 22 26 26 23 23 24 23 21 21 20 20 20 19 20 18 17 17 16 16 15 13 12 11 15 20 21 19 20 21 21 21
10 8 9 13 19 20 24 26 26 24 25 24 24 25 28 26 25 24 24 24 23 21 21 20 20 20 19 18 18 17 17 16 15 14 13 10 19 22 23 24 26 25 22
15 12 10 13 17 21 25 25 25 28 26 25 27 26 29 28 25 24 26 25 25 24 22 21 20 19 18 18 18 18 17 17 17 17 14 14 13 20 24 23 27 31 24
18 17 13 12 16 21 24 25 26 27 27 28 25 26 27 35 29 26 26 28 25 25 24 24 22 20 20 19 18 16 16 16 17 17 17 15 14 12 17 20 20 19 20
19 20 19 16 15 21 24 26 27 26 27 28 27 28 29 31 33 28 27 27 27 28 27 24 24 23 21 19 17 16 16 17 18 18 19 18 17 16 13 12 11 19 29
20 20 22 19 17 17 24 25 26 26 27 29 29 29 31 33 33 32 28 25 29 29 27 27 24 24 22 19 18 17 17 17 17 19 19 20 22 24 23 17 15 17 27
19 21 19 21 16 16 20 25 26 28 29 32 32 32 32 32 33 33 30 28 33 35 33 29 25 24 22 19 14 14 14 14 17 21 20 19 21 21 23 25 21 24 34
20 21 21 21 20 18 18 23 26 27 30 32 33 33 32 32 32 35 34 33 35 31 31 31 32 22 19 25 13 8 4 12 20 22 22 22 21 20 23 25 28 27 28
22 22 23 24 23 23 21 21 25 28 28 29 30 30 33 35 36 39 36 33 34 33 33 33 33 30 23 25 27 13 5 8 9 15 22 24 22 23 27 26 28 28 31
23 23 24 25 26 24 23 23 25 29 30 31 30 32 35 37 36 36 36 37 36 35 34 36 33 33 26 21 24 28 23 9 6 4 10 15 21 21 27 27 30 30 32
24 24 24 25 27 25 24 25 27 30 31 30 30 31 34 34 38 37 37 37 37 37 37 33 33 33 33 25 26 18 24 22 19 7 9 8 12 18 23 29 32 32 34
25 26 27 27 26 27 24 25 29 32 35 31 31 30 31 33 35 39 39 38 39 37 36 38 34 34 32 28 25 26 23 19 19 14 9 15 17 16 21 28 33 35 35
Wind_Direction
195 177 182 177 174 173 176 178 185 191 186 179 176 173 169 165 162 161 159 158 156 159 160 164 168 167 164 163 157 149 144 142 138 137 136 133 134 133 133 127 121 120 122
186 179 181 181 176 175 175 174 180 183 178 178 177 175 172 168 164 163 161 160 160 158 155 156 166 165 163 163 162 157 153 144 139 138 136 132 134 134 130 123 130 130 124
188 181 180 181 178 176 175 171 175 175 176 180 179 176 175 171 168 167 165 164 163 161 158 154 156 166 162 158 162 159 152 145 142 145 133 134 138 137 136 137 138 129 127
189 177 176 181 179 177 176 173 175 178 181 181 181 180 178 174 172 171 170 169 167 164 159 155 156 163 162 162 162 157 155 152 153 141 142 141 141 144 143 142 135 133 131
192 180 179 181 181 179 178 175 177 181 184 185 184 183 180 177 176 176 175 173 171 167 165 162 162 165 169 168 165 159 160 159 150 145 146 145 143 152 147 147 139 134 127
187 183 195 183 183 182 179 178 179 182 183 186 186 184 182 181 180 180 179 177 174 172 171 169 164 167 169 168 167 162 164 162 152 157 158 151 153 161 155 142 142 144 143
181 186 197 189 186 184 183 181 182 183 184 184 186 185 183 184 185 184 184 182 180 177 175 173 168 171 174 172 171 167 167 164 176 164 160 163 157 165 158 155 153 150 144
194 190 188 190 192 188 186 183 183 186 186 184 185 185 186 188 187 189 188 187 185 182 183 179 177 176 178 177 176 173 171 165 171 167 168 174 176 168 163 159 156 153 150
202 195 192 186 193 194 190 188 188 187 188 188 187 187 189 192 191 193 192 189 189 189 193 189 185 180 181 181 180 178 176 172 183 179 177 181 184 172 165 163 160 155 158
196 198 196 188 186 193 194 194 194 193 192 190 192 193 194 194 195 196 194 192 192 197 201 194 190 185 184 183 183 183 182 175 187 184 188 194 194 180 171 167 164 166 174
209 191 191 191 186 192 196 196 197 199 197 196 193 196 196 193 197 199 194 201 196 199 203 200 194 190 187 183 184 189 182 187 198 202 201 209 201 188 179 170 174 184 183
238 200 193 192 197 190 193 198 196 199 197 198 195 195 193 197 200 202 201 204 200 202 204 202 196 192 184 185 189 192 190 202 206 208 213 218 196 195 186 179 187 191 188
271 220 198 196 202 196 192 196 195 201 202 202 203 199 196 199 200 201 203 203 202 204 199 198 194 191 195 196 195 199 204 209 212 214 217 219 198 201 198 193 198 194 193
287 242 226 204 201 205 199 199 196 200 203 202 201 203 200 199 200 201 203 202 202 203 202 194 196 198 204 209 207 207 210 212 216 219 223 214 202 206 203 201 201 196 193
296 277 241 224 219 209 202 205 206 205 211 211 207 201 200 202 201 199 203 204 204 205 204 201 199 199 204 211 213 215 215 217 221 225 224 213 205 209 212 204 202 196 189
301 286 268 246 232 223 217 207 208 211 212 211 210 209 203 207 206 201 203 204 207 206 206 205 204 202 203 212 217 219 222 221 225 225 225 228 220 215 223 217 206 200 194
295 283 273 249 241 230 226 223 217 213 211 216 210 210 217 211 213 204 200 207 206 208 204 203 207 206 206 209 219 221 225 226 229 227 226 227 236 225 230 232 223 215 192
295 292 289 266 248 235 229 226 224 221 216 215 214 209 215 219 214 217 207 205 207 206 202 202 201 206 211 208 216 220 224 230 233 232 231 228 225 219 223 237 252 259 205
299 302 298 290 260 243 235 231 226 224 223 220 216 210 210 215 211 213 218 210 204 204 200 205 205 204 212 210 213 213 225 229 236 237 235 231 227 214 226 240 227 227 226
308 309 308 300 286 259 241 231 231 228 226 224 220 215 211 210 211 207 216 214 207 206 203 201 207 206 209 209 215 221 228 232 237 238 238 240 238 235 247 252 255 245 225
319 316 315 310 305 285 253 234 231 225 224 224 222 220 216 208 208 209 214 214 212 208 208 201 197 198 206 206 197 219 228 230 238 241 244 244 244 243 242 248 269 257 250
323 319 319 312 309 300 279 255 237 232 228 228 225 222 218 212 208 210 211 213 206 203 208 203 198 193 194 193 192 195 209 232 238 240 243 243 238 240 241 254 265 250 246
323 321 317 312 307 299 291 278 260 236 233 226 226 222 215 214 211 210 208 206 205 202 204 207 204 197 194 196 205 197 208 228 221 228 233 239 239 238 250 256 253 251 236
324 320 315 310 306 301 292 279 259 249 228 224 222 220 220 216 216 212 210 203 205 204 206 207 206 205 198 198 200 221 233 251 193 207 220 238 238 238 245 251 246 246 238
325 323 318 311 306 304 296 280 267 255 243 227 221 221 221 220 216 212 209 206 206 205 208 205 205 205 208 202 200 207 223 228 231 249 261 222 235 238 235 233 237 242 242
325 326 324 318 311 309 302 282 269 259 249 230 223 217 219 217 212 210 207 207 208 206 207 204 207 207 208 206 204 216 210 210 224 225 242 253 250 245 232 232 231 233 236